Dewpoint
52 52 52 52 52 52 52 52 52 52 51 51 51 50 49 49 49 48 45 46 42 33 36 36 35 33 31 30 26 27 25 25 23 17 16 15 14 8 7 8 6 6 4 2 -1 -3 -3 4 3 -7 -10 -2 -1 -2
50 50 51 51 51 51 51 51 51 51 51 51 51 51 50 49 49 48 43 47 46 41 37 37 37 37 36 37 32 29 26 24 24 19 19 20 15 12 10 6 7 5 8 5 3 -1 -8 -6 -7 -9 -3 1 3 -1
47 47 47 48 49 49 50 50 50 50 50 50 51 51 51 50 50 49 44 44 41 33 35 31 31 34 36 36 37 30 29 29 27 29 24 21 15 19 11 11 7 5 4 1 0 -1 2 -1 1 3 -3 -2 3 4
44 44 44 45 46 46 47 47 48 49 49 50 49 50 50 50 50 49 45 42 40 33 28 28 30 25 24 30 31 32 30 30 29 28 22 19 15 17 12 8 7 3 3 1 -0 2 3 3 4 0 -0 1 2 2
41 41 42 42 42 43 44 45 46 47 47 48 49 49 49 50 50 48 46 43 41 35 30 26 25 20 26 27 28 28 28 27 26 21 19 16 14 12 7 7 4 1 2 -0 -2 -3 -5 -1 2 -1 -1 -1 1 -1
39 40 40 40 41 41 42 42 43 45 46 47 48 48 49 49 49 40 34 37 41 41 30 21 20 16 20 20 21 22 23 21 20 19 13 9 10 10 5 1 -4 -4 -5 -7 -6 -4 -3 2 -2 -2 -3 -1 -1 0
39 39 39 39 40 40 41 41 41 43 45 46 47 48 48 48 43 36 34 35 39 37 28 20 15 13 15 17 16 18 19 17 17 13 10 7 6 8 4 -0 -4 -5 -4 -5 -6 -7 -7 -4 -6 -6 -4 -5 -1 -3
39 39 39 39 39 40 40 40 41 42 43 44 45 46 44 42 37 31 32 37 36 31 29 20 11 12 15 13 10 15 15 14 9 7 8 4 4 3 -3 -6 -7 -7 -5 -10 -14 -17 -15 -14 -14 -14 -12 -11 -9 -9
37 38 38 39 39 40 40 40 40 41 42 44 44 40 37 33 28 29 37 33 27 27 21 18 10 8 14 10 12 12 14 3 6 0 -0 0 -7 -9 -8 -8 -8 -14 -15 -16 -18 -18 -19 -17 -18 -17 -17 -19 -20 -19
37 37 37 37 38 39 39 39 39 39 42 42 37 33 26 27 36 35 28 26 22 16 14 7 9 3 8 11 7 7 8 -1 -10 -10 -5 -14 -11 -14 -16 -19 -16 -15 -17 -22 -22 -20 -20 -20 -21 -26 -24 -26 -26 -22
36 37 36 37 37 37 38 39 39 38 41 34 29 23 30 36 28 24 14 11 8 4 6 4 6 2 8 6 2 5 2 0 -11 -11 -11 -18 -13 -16 -20 -21 -25 -25 -24 -27 -27 -28 -29 -27 -27 -28 -24 -26 -26 -23
33 37 36 36 37 37 37 37 38 37 34 34 29 30 28 25 20 13 6 3 5 3 2 0 3 4 4 9 3 1 -1 -2 -13 -6 -13 -17 -12 -21 -21 -23 -26 -30 -28 -27 -30 -26 -29 -29 -30 -29 -28 -26 -24 -22
32 34 36 35 36 37 37 37 37 38 35 31 26 21 20 17 10 5 -0 -1 -4 0 -1 1 0 2 4 7 1 1 -5 -11 -6 -16 -16 -14 -21 -24 -27 -31 -28 -34 -32 -29 -28 -30 -29 -30 -31 -29 -26 -26 -26 -23
33 36 36 35 35 36 36 36 37 38 32 26 20 14 15 10 2 -1 -2 -3 1 2 3 2 1 2 3 -1 -1 -5 -8 -7 -19 -21 -21 -23 -23 -23 -33 -33 -27 -28 -32 -30 -30 -31 -29 -27 -28 -27 -26 -27 -25 -18
34 38 35 34 35 35 36 37 37 30 27 23 22 14 6 0 -1 -4 -3 -1 3 6 3 1 2 2 -2 -6 -4 -9 -14 -20 -18 -19 -20 -21 -31 -28 -32 -32 -31 -32 -34 -33 -34 -32 -31 -32 -30 -26 -25 -28 -23 -17
35 34 33 35 35 34 33 32 25 20 14 12 8 1 2 -2 -2 -0 0 0 6 5 7 5 -1 -3 -7 -7 -11 -15 -17 -20 -16 -18 -22 -31 -32 -35 -33 -33 -31 -33 -34 -32 -33 -31 -29 -31 -30 -27 -27 -25 -19 -11
34 34 35 35 33 31 29 20 17 11 9 5 -1 4 3 3 1 2 3 1 6 6 1 1 -5 -9 -8 -13 -15 -14 -17 -17 -18 -20 -21 -24 -25 -29 -32 -31 -28 -27 -28 -29 -32 -30 -30 -30 -36 -32 -27 -22 -18 -9
33 36 37 36 29 23 16 16 10 5 -1 1 -1 0 2 3 1 1 2 5 6 3 2 -2 -6 -12 -14 -22 -18 -15 -19 -19 -17 -16 -18 -24 -29 -30 -23 -23 -22 -23 -22 -25 -25 -27 -30 -30 -25 -21 -16 -21 -10 -4
36 37 38 35 27 17 10 9 10 -1 0 2 3 3 2 2 4 4 3 2 1 2 -1 -7 -14 -14 -9 -11 -15 -19 -19 -14 -17 -19 -23 -27 -25 -24 -24 -24 -23 -25 -26 -26 -22 -19 -21 -24 -23 -19 -16 -13 -8 -6
31 31 30 29 24 12 4 3 8 0 -3 1 3 -0 0 -0 1 1 -0 -1 0 -2 -9 -12 -10 -10 -13 -16 -13 -13 -13 -14 -15 -19 -19 -19 -25 -23 -18 -18 -16 -18 -20 -23 -20 -8 -15 -13 -10 -9 -13 -11 -5 -11
26 27 26 18 12 9 6 4 1 2 2 -1 3 1 -0 3 0 -1 -3 -0 -4 -9 -10 -12 -16 -18 -22 -21 -16 -11 -17 -14 -20 -19 -20 -21 -21 -15 -15 -13 -15 -14 -14 -13 -15 -14 -12 -14 -13 -11 -9 -10 -7 -7
22 23 17 16 4 -1 -3 5 1 3 -1 1 1 3 -1 -3 -3 -5 -3 -8 -12 -10 -11 -14 -16 -17 -16 -18 -20 -20 -21 -21 -20 -15 -6 -6 -16 -14 -14 -14 -13 -16 -14 -14 -14 -14 -13 -12 -12 -12 -11 -9 -6 -12
21 17 10 4 -3 -3 -3 8 -1 -1 -5 -4 -2 -3 -3 -5 -6 -4 -12 -12 -11 -13 -13 -15 -20 -22 -20 -26 -24 -22 -20 -17 -17 -16 -14 -13 -13 -12 -13 -13 -13 -16 -15 -13 -11 -12 -13 -9 -9 -9 -9 -13 -13 -12
16 4 1 0 -1 -6 -2 -2 1 -0 -3 -2 -3 -5 -6 -7 -8 -15 -17 -13 -12 -12 -13 -21 -13 -17 -19 -20 -19 -17 -15 -15 -16 -15 -15 -16 -16 -17 -17 -16 -18 -15 -12 -12 -12 -12 -12 -12 -8 -11 -12 -13 -13 -13
2 2 6 1 1 0 -1 -1 -1 -1 -2 -1 -6 -9 -14 -15 -19 -23 -19 -15 -17 -17 -17 -15 -15 -15 -15 -17 -17 -13 -13 -12 -14 -15 -16 -14 -16 -17 -16 -17 -18 -17 -13 -15 -14 -12 -12 -12 -12 -13 -13 -14 -15 -19
-3 3 2 3 2 2 2 -1 -0 -2 -4 -13 -18 -21 -23 -24 -28 -29 -17 -17 -15 -14 -12 -11 -10 -9 -9 -10 -13 -13 -12 -11 -13 -15 -17 -12 -14 -17 -19 -18 -18 -15 -12 -13 -15 -15 -14 -12 -13 -17 -16 -14 -5 -10
-3 -0 5 7 6 4 2 0 -2 -9 -20 -25 -24 -25 -29 -37 -34 -18 -13 -16 -13 -11 -6 -7 -7 -7 -8 -7 -7 -8 -10 -10 -13 -14 -14 -12 -12 -13 -14 -18 -17 -14 -12 -13 -12 -14 -15 -14 -13 -14 -15 -16 -14 -14
3 3 -4 -5 -11 -11 -15 -16 -21 -24 -20 -16 -18 -29 -32 -25 -18 -12 -12 -16 -18 -16 -14 -11 -9 -7 -7 -7 -7 -9 -13 -16 -18 -17 -15 -14 -14 -15 -14 -13 -13 -4 -13 -12 -13 -14 -12 -11 -12 -13 -14 -14 -12 -12
-9 -5 -11 -23 -23 -21 -24 -23 -20 -16 -13 -18 -19 -18 -18 -12 -14 -16 -13 -13 -18 -16 -13 -13 -14 -15 -12 -11 -11 -11 -12 -13 -13 -15 -16 -16 -15 -13 -13 -13 -14 -12 -15 -12 1 1 -7 -8 -8 -8 -11 -12 -16 -22
-13 -11 -19 -26 -22 -21 -22 -21 -24 -22 -16 -15 -14 -14 -12 -12 -13 -17 -14 -17 -15 -14 -15 -15 -14 -14 -12 -11 -12 -12 -11 -11 -10 -11 -13 -13 -13 -10 -11 -12 -12 -12 -11 -13 -13 -13 -1 -5 -9 -18 -17 -22 -25 -25
-11 -17 -20 -18 -20 -21 -21 -21 -23 -13 -20 -25 -23 -20 -15 -14 -12 -15 -14 -15 -17 -21 -16 -17 -16 -13 -11 -11 -12 -11 -11 -9 -10 -10 -9 -9 -9 -10 -9 -10 -10 -10 -11 -11 -10 -11 -11 -11 -13 -14 -15 -16 -19 -9
-14 -22 -21 -22 -20 -22 -25 -25 -26 -25 -25 -22 -20 -26 -19 -17 -16 -12 -16 -17 -19 -14 -5 -5 -9 -9 -8 -6 -6 -6 -1 -4 -8 -9 -9 -8 -5 -8 -9 -9 -10 -10 -10 -10 -10 -10 -11 -13 -13 -13 -14 -14 -14 -15
-25 -26 -28 -24 -19 -20 -20 -23 -22 -21 -22 -22 -21 -23 -24 -19 -17 -11 -16 -17 -10 -8 -7 -5 -4 -5 -5 -6 -6 -5 1 -3 -3 2 3 4 3 -0 -7 -8 -8 -9 -10 -9 -8 -9 -10 -11 -12 -12 -13 -13 -13 -13
Lifted_Index
8 8 8 8 8 8 8 8 8 8 8 8 8 9 9 9 10 10 10 10 10 10 10 11 11 10 10 9 9 9 9 9 8 7 6 6 7 7 7 7 7 7 7 7 8 8 8 11 12 12 12 12 12 12
9 9 9 8 8 8 8 8 8 8 8 8 8 9 9 9 10 10 10 10 10 10 10 11 11 11 10 10 10 9 9 9 9 8 8 7 8 8 7 7 8 8 8 8 9 10 10 12 13 13 13 13 13 13
11 11 10 10 9 9 9 9 9 9 9 9 9 9 9 9 9 10 10 11 11 10 10 10 11 11 12 12 11 10 10 10 10 9 9 9 9 9 8 8 9 9 9 10 11 12 12 13 13 14 14 15 15 15
12 12 11 11 11 11 10 10 10 10 9 9 9 9 9 9 9 10 10 11 11 10 9 10 11 12 13 13 13 12 11 11 11 10 10 10 10 10 10 9 9 10 10 10 11 13 14 14 14 15 15 15 15 16
12 12 12 12 12 11 11 11 11 10 10 10 9 9 9 9 9 10 10 11 10 9 8 9 11 13 14 14 13 13 12 12 11 11 11 11 11 11 11 10 10 10 11 11 13 14 15 16 16 16 15 15 15 16
12 12 12 11 11 11 11 11 10 10 10 9 9 9 8 8 8 9 9 9 9 8 7 8 11 13 15 15 14 13 13 13 12 11 11 12 12 12 10 9 10 11 13 14 15 15 16 16 16 16 16 15 16 16
12 12 12 11 11 10 10 10 9 9 8 8 7 7 6 6 6 6 7 7 7 6 6 7 9 13 14 14 13 13 14 13 13 12 12 12 12 11 10 9 11 13 15 16 16 16 16 16 16 16 16 16 16 16
12 12 11 11 10 10 9 9 8 8 7 7 6 5 5 4 4 5 5 6 7 6 6 7 8 11 13 12 12 14 14 13 13 13 12 12 11 10 9 10 12 14 15 16 17 16 16 16 16 16 16 16 15 15
11 11 11 10 10 9 9 9 8 8 7 6 5 4 4 4 5 5 6 7 7 7 7 7 7 9 11 11 11 13 13 12 12 12 12 12 10 10 11 13 15 16 16 16 16 16 15 15 15 15 15 15 15 15
9 9 9 9 9 9 8 8 8 7 7 6 4 4 4 6 7 7 6 6 7 8 8 8 7 8 10 11 11 12 11 10 9 10 11 10 9 12 14 15 16 17 17 17 16 15 15 14 14 15 15 15 15 15
8 8 8 8 8 8 8 7 7 7 6 5 5 5 6 8 7 6 4 4 5 6 8 8 8 9 11 11 10 11 10 9 8 9 10 9 10 13 16 16 17 18 18 17 17 16 15 15 15 15 16 16 16 16
8 8 8 8 7 7 7 7 6 6 5 5 5 5 6 6 5 3 3 3 3 5 6 7 8 10 12 12 11 10 9 9 9 10 9 9 11 14 16 16 17 18 18 17 17 17 17 16 17 17 17 17 17 17
8 8 7 7 7 7 6 6 5 5 5 5 4 4 4 3 2 2 2 2 3 5 6 6 7 9 12 12 11 9 9 9 10 9 9 10 13 15 16 17 17 17 17 17 17 17 17 17 18 18 18 18 18 17
7 6 7 7 7 6 6 5 4 4 4 3 3 2 1 1 1 2 2 3 5 6 7 7 8 9 10 10 10 9 9 9 9 8 9 12 14 15 16 17 17 17 17 17 17 17 18 18 19 19 19 19 18 17
5 5 5 6 6 6 6 5 4 4 3 2 1 1 1 1 1 2 4 5 7 8 9 8 8 8 9 9 9 9 8 8 8 9 11 13 14 15 16 16 17 17 17 17 17 18 18 19 19 19 19 18 18 17
3 3 4 5 5 6 5 5 4 4 3 2 1 1 1 1 2 3 5 7 9 10 9 9 8 8 8 8 8 8 8 8 9 10 12 13 14 15 15 16 16 17 17 18 18 19 19 19 19 19 18 18 17 17
1 2 3 3 4 4 4 4 3 3 2 2 2 2 2 3 3 5 7 9 10 10 9 8 8 8 8 8 8 8 9 9 10 11 12 13 14 14 15 16 16 17 17 18 18 19 19 19 19 18 17 17 17 17
1 1 2 2 3 3 3 3 3 2 2 3 3 4 5 6 7 8 10 11 11 11 10 9 9 9 8 8 8 9 9 10 11 11 12 13 14 14 15 15 16 17 17 18 18 19 19 19 18 17 17 17 17 17
0 1 1 2 2 2 2 3 3 3 2 4 6 7 8 9 10 11 12 12 12 12 11 10 10 9 8 8 9 9 10 10 10 11 11 13 13 14 14 15 16 16 17 17 18 19 19 18 18 17 17 17 17 17
1 1 2 2 2 2 2 4 5 4 4 6 9 9 10 10 11 12 12 12 13 12 11 10 9 9 9 10 10 10 10 10 10 10 10 12 13 14 14 15 15 16 17 17 18 18 18 18 18 18 18 17 17 17
3 3 3 3 3 3 4 5 6 7 7 8 10 10 10 10 10 11 11 12 11 10 10 9 9 10 10 11 11 11 11 11 11 10 10 11 12 13 14 14 15 16 16 16 17 17 18 18 18 18 18 18 18 17
4 4 4 4 4 4 6 7 8 8 9 9 10 10 9 9 10 10 11 11 10 10 10 10 10 10 10 11 11 11 11 11 11 11 11 11 12 12 13 14 14 15 15 16 16 17 17 18 19 19 18 18 18 18
5 5 5 5 5 5 7 9 9 8 8 8 9 8 8 8 9 10 10 9 9 10 10 10 10 10 10 10 11 11 11 11 11 11 11 11 11 12 13 13 14 14 15 15 16 17 17 18 19 18 18 18 17 17
5 5 5 5 5 6 7 8 8 8 8 8 7 7 7 8 9 8 8 8 9 9 10 10 10 10 10 10 10 11 11 11 11 11 11 11 11 12 12 13 14 14 15 15 16 16 17 17 18 18 17 17 17 17
5 6 6 6 6 6 7 7 7 7 7 7 7 7 7 8 7 6 6 7 8 8 9 9 9 9 9 9 9 10 11 11 11 10 11 11 11 11 11 12 12 14 15 15 15 15 16 16 17 17 16 16 16 16
6 7 7 8 7 7 7 7 7 6 6 6 7 7 7 6 6 5 6 7 8 8 8 9 9 8 8 9 9 10 11 11 11 11 11 12 12 11 11 11 11 12 14 15 14 14 15 15 15 15 16 16 16 16
7 8 8 9 9 8 7 7 7 7 6 6 6 6 6 5 5 6 7 8 8 8 9 9 9 9 9 9 10 10 11 11 11 11 12 12 12 12 12 11 11 13 14 15 14 14 14 14 15 15 15 15 16 16
9 9 8 9 8 8 7 7 7 6 6 6 6 5 5 5 6 7 8 8 9 9 9 9 9 9 9 9 10 10 11 11 11 11 11 11 12 12 12 13 13 14 14 15 15 15 15 15 15 14 14 14 15 15
9 9 8 7 7 7 7 6 6 7 7 7 6 6 6 6 7 8 8 8 8 8 8 8 8 9 9 9 9 10 10 10 9 9 8 8 9 11 12 13 13 14 14 14 15 15 15 15 15 14 14 14 14 15
9 8 7 6 6 6 7 7 7 8 8 7 7 7 7 7 8 8 8 8 8 8 7 7 8 8 8 8 8 8 9 9 9 8 8 8 9 10 12 12 13 13 13 13 14 14 14 14 14 14 13 13 13 13
8 7 6 6 6 7 8 8 8 8 8 7 7 7 6 7 7 8 8 8 7 7 7 7 7 7 7 7 8 8 8 9 9 9 9 9 10 10 11 12 12 13 13 13 13 13 13 12 12 12 12 12 12 12
7 7 6 6 6 7 7 7 7 7 7 6 6 6 6 6 6 7 7 7 7 6 6 7 7 7 8 8 8 9 9 9 10 10 10 10 10 10 11 12 12 12 12 12 12 12 12 12 11 11 11 11 11 11
7 7 6 6 6 6 6 6 6 6 6 5 5 5 5 5 5 6 7 7 7 6 6 7 7 8 8 9 9 9 9 10 10 10 10 10 10 10 11 11 12 12 12 12 12 12 12 11 11 11 11 11 11 11